TimeEST,TemperatureF,Dew PointF,Humidity,Sea Level PressureIn,VisibilityMPH,Wind Direction,Wind SpeedMPH,Gust SpeedMPH,PrecipitationIn,Events,Conditions,WindDirDegrees,DateUTC
12:54 AM,34.0,21.0,59,29.97,10.0,South,4.6,-,N/A,,Scattered Clouds,190,2013-02-01 05:54:00
1:54 AM,42.1,21.0,43,29.93,10.0,West,15.0,25.3,N/A,,Mostly Cloudy,260,2013-02-01 06:54:00
2:54 AM,43.0,23.0,45,29.91,10.0,West,12.7,27.6,N/A,,Overcast,280,2013-02-01 07:54:00
3:54 AM,43.0,23.0,45,29.89,10.0,WNW,17.3,47.2,N/A,,Overcast,290,2013-02-01 08:54:00
4:47 AM,35.6,30.2,81,29.93,5.0,NNW,13.8,25.3,0.00,Snow,Light Snow,340,2013-02-01 09:47:00
4:54 AM,34.0,30.9,89,29.95,2.5,NNW,16.1,25.3,0.00,Snow,Light Snow,330,2013-02-01 09:54:00
5:06 AM,33.8,30.2,87,29.94,3.0,NNW,13.8,-,0.00,Snow,Light Snow,330,2013-02-01 10:06:00
5:16 AM,33.8,28.4,81,29.95,7.0,NW,11.5,19.6,0.00,Snow,Light Snow,320,2013-02-01 10:16:00
5:54 AM,30.0,25.0,82,30.01,9.0,North,19.6,28.8,0.00,,Overcast,350,2013-02-01 10:54:00
6:54 AM,27.0,12.0,53,30.07,10.0,NNW,19.6,27.6,N/A,,Clear,340,2013-02-01 11:54:00
7:54 AM,24.1,12.0,60,30.13,10.0,North,17.3,25.3,N/A,,Clear,350,2013-02-01 12:54:00
8:54 AM,24.8,10.4,54,30.13,10.0,North,18.4,26.5,N/A,,Clear,350,2013-02-01 13:54:00
9:54 AM,23.0,10.9,60,30.23,10.0,North,18.4,27.6,N/A,,Clear,360,2013-02-01 14:54:00
10:54 AM,24.1,10.0,55,30.26,10.0,North,10.4,23.0,N/A,,Clear,10,2013-02-01 15:54:00
11:54 AM,24.8,8.6,50,30.22,10.0,North,9.2,23.0,N/A,,Clear,350,2013-02-01 16:54:00
12:54 PM,26.1,8.1,47,30.27,10.0,North,15.0,26.5,N/A,,Clear,360,2013-02-01 17:54:00
1:54 PM,27.0,8.1,45,30.25,10.0,North,13.8,21.9,N/A,,Clear,360,2013-02-01 18:54:00
2:54 PM,28.9,8.1,41,30.24,10.0,North,11.5,20.7,N/A,,Clear,350,2013-02-01 19:54:00
3:54 PM,28.9,7.0,40,30.25,10.0,North,12.7,18.4,N/A,,Clear,10,2013-02-01 20:54:00
4:54 PM,28.4,6.8,40,30.23,10.0,North,11.5,19.6,N/A,,Clear,350,2013-02-01 21:54:00
5:54 PM,26.6,6.8,43,30.23,10.0,North,16.1,-,N/A,,Clear,350,2013-02-01 22:54:00
6:54 PM,24.1,7.0,48,30.31,10.0,NNW,11.5,-,N/A,,Clear,330,2013-02-01 23:54:00
7:54 PM,23.0,7.0,50,30.33,10.0,NNW,15.0,-,N/A,,Clear,330,2013-02-02 00:54:00
8:54 PM,21.9,7.0,53,30.35,10.0,NNW,12.7,-,N/A,,Clear,340,2013-02-02 01:54:00
9:54 PM,21.9,8.1,55,30.35,10.0,NNW,11.5,-,N/A,,Clear,340,2013-02-02 02:54:00
10:54 PM,21.0,8.1,57,30.35,10.0,Variable,4.6,-,N/A,,Clear,0,2013-02-02 03:54:00
11:54 PM,21.0,9.0,60,30.36,10.0,NNW,6.9,-,N/A,,Clear,330,2013-02-02 04:54:00